Starlink 1873

operational
NORAD ID: 47158 Int'l Des: 2020-088 Owner: SPXS Country: US Constellation: starlink
LEOCIRCULARSTARLINK_TYPE

Starlink 1873について

説明を読み込み中...

リアルタイム位置

3D地球を読み込み中...

次回通過

高度履歴

Altitude vs Time

uPlot chart will show altitude changes over time

軌道要素

1 47158U 20088AN 25352.00002315 .00036023 00000-0 19123-2 0 9993
2 47158 53.0537 298.1594 0001854 74.1870 8.8777 15.15017122 5741
Epoch: Dec 18, 2025 • Age: 10 hours

現在のステータス

高度 528.4 km
速度 7.60 km/s
衛星直下点 -23.40°S, 102.98°W
打ち上げ日 Nov 25, 2020
運用期間 5 years
タイプ internet

技術仕様

分類 Payload
質量 260.00 kg
乾燥質量 248.00 kg
総質量 260.00 kg
長さ 0.20 m
直径 2.80 m
スパン 9.00 m
形状 Box + pan
製造者 SPXS
バスタイプ Starlink
フェーズステータス In Orbit
所有者/国 SPXS/US

大規模コンステレーション

Loading constellations...